Regional Weather Roundup
Issued by NWS Charleston, WV

Home | Current Version | Previous Version | Graphics & Text | Print | Product List | Glossary On
Versions: 1 2 3 4 5 6 7 8 9 10 11 12 13 14 15 16 17 18 19 20 21 22 23 24 25 26 27
000
ASUS41 KRLX 210510
RWRRLX
West Virginia Regional Weather Roundup
National Weather Service Charleston WV
100 AM EDT FRI JUL 21 2017

Note: "fair" indicates few or no clouds below 12,000 feet with no
significant weather and/or obstructions to visibility.

WVZ003-210600-
Northern Panhandle of West Virginia

CITY           SKY/WX    TMP DP  RH WIND       PRES   REMARKS
WHEELING       MOCLDY    72  70  93 S3        30.02S
$$

WVZ009-210600-
Northwest West Virginia

CITY           SKY/WX    TMP DP  RH WIND       PRES   REMARKS
PARKERSBURG    CLOUDY    75  72  90 CALM      30.04F FOG
$$

WVZ006-210600-
Western West Virginia

CITY           SKY/WX    TMP DP  RH WIND       PRES   REMARKS
HUNTINGTON     MOCLDY    77  74  90 SW3       30.03F
$$

WVZ015-210600-
West Central West Virginia

CITY           SKY/WX    TMP DP  RH WIND       PRES   REMARKS
CHARLESTON     CLOUDY    73  69  87 S3        30.04S
$$

WVZ022-031-210600-
North Central West Virginia

CITY           SKY/WX    TMP DP  RH WIND       PRES   REMARKS
CLARKSBURG     MOCLDY    72  70  93 SW3       30.04S FOG
MORGANTOWN     PTCLDY    73  70  90 S3        30.05S FOG
$$

WVZ025-035-042-045-210600-
Southern West Virginia

CITY           SKY/WX    TMP DP  RH WIND       PRES   REMARKS
BECKLEY        CLOUDY    69  64  84 S6        30.15F
LOGAN            N/A     72  70  94 CALM      30.09F
BLUEFIELD      CLEAR     68  63  84 W6        30.18S
LEWISBURG      CLEAR     66  63  89 CALM      30.13S
$$

WVZ047-210600-
Northern Mountains of West Virginia

CITY           SKY/WX    TMP DP  RH WIND       PRES   REMARKS
ELKINS         CLOUDY    72  66  81 CALM      30.11S
$$

WVZ052-210600-
Eastern Panhandle of West Virginia

CITY           SKY/WX    TMP DP  RH WIND       PRES   REMARKS
MARTINSBURG    MOCLDY    77  67  71 S5        29.96S
PETERSBURG     CLOUDY    74  70  87 CALM      30.03F
$$




USA.gov is the U.S. government's official web portal to all federal, state and local government web resources and services.